Lapse_Rate
6.5 6.3 6.3 6.3 6.1 6.0 6.0 6.0 6.1 6.2 6.2 6.1 6.1 6.0 6.0 6.0 6.1 6.1 6.1 6.1 6.1 6.2 6.2 6.2 6.2 6.2 6.3 6.2 6.2 6.1 6.0 5.9 5.9 5.9 5.7 5.6 5.5 5.4 5.4 5.4 5.4 5.4 5.4
6.4 6.5 6.4 6.2 6.1 6.0 6.1 6.1 6.1 6.2 6.1 6.2 6.1 6.1 6.1 6.1 6.1 6.1 6.1 6.1 6.1 6.2 6.3 6.3 6.3 6.3 6.3 6.3 6.2 6.2 6.1 6.0 5.9 5.9 5.8 5.7 5.6 5.5 5.4 5.4 5.4 5.4 5.4
6.7 6.5 6.3 6.2 6.0 6.0 6.1 6.0 6.1 6.2 6.2 6.1 6.2 6.3 6.3 6.3 6.3 6.3 6.3 6.2 6.3 6.2 6.2 6.3 6.3 6.4 6.4 6.3 6.2 6.1 6.0 5.9 5.9 5.9 5.9 5.9 5.7 5.6 5.4 5.4 5.4 5.4 5.3
6.8 6.5 6.3 6.2 6.0 6.1 6.0 6.1 6.1 6.2 6.2 6.2 6.3 6.4 6.4 6.4 6.4 6.4 6.4 6.4 6.4 6.5 6.5 6.5 6.4 6.3 6.3 6.3 6.2 6.1 6.1 6.1 6.0 6.0 5.9 5.8 6.0 5.7 5.6 5.5 5.6 5.5 5.3
6.8 6.5 6.3 6.2 6.1 6.0 6.0 6.1 6.1 6.2 6.2 6.3 6.4 6.5 6.5 6.5 6.5 6.5 6.5 6.5 6.6 6.7 6.7 6.6 6.6 6.5 6.4 6.3 6.1 6.1 6.2 6.2 6.3 6.2 6.1 6.0 6.0 6.0 6.0 5.9 5.8 5.6 5.5
7.0 6.6 6.1 6.1 6.0 6.0 6.0 6.0 6.2 6.2 6.3 6.4 6.4 6.5 6.5 6.6 6.6 6.6 6.6 6.7 6.7 6.7 6.8 6.7 6.7 6.6 6.5 6.4 6.3 6.3 6.4 6.5 6.5 6.4 6.4 6.3 6.2 6.1 6.1 6.2 6.2 5.9 5.7
7.2 6.6 6.2 6.1 6.0 5.9 5.9 6.0 6.1 6.3 6.4 6.4 6.4 6.4 6.4 6.5 6.6 6.6 6.7 6.8 6.9 6.9 6.9 6.9 6.9 6.8 6.7 6.6 6.6 6.6 6.7 6.7 6.8 6.7 6.5 6.5 6.5 6.3 6.3 6.3 6.3 6.3 6.1
7.1 6.7 6.3 6.2 5.9 5.9 5.9 5.9 6.1 6.3 6.4 6.4 6.4 6.5 6.5 6.6 6.7 6.7 6.9 7.0 7.1 7.1 7.1 7.1 7.1 7.1 6.9 6.8 6.8 6.8 6.8 6.9 6.8 6.8 6.8 6.7 6.5 6.4 6.4 6.4 6.4 6.3 6.2
7.2 6.8 6.4 6.2 6.0 6.0 6.0 6.0 6.1 6.3 6.3 6.4 6.5 6.6 6.7 6.8 6.7 6.8 7.0 7.0 7.1 7.1 7.2 7.2 7.2 7.2 7.1 7.0 6.9 6.9 6.9 7.0 6.9 6.9 6.8 6.7 6.6 6.6 6.5 6.4 6.4 6.3 6.3
7.3 6.9 6.7 6.2 6.1 6.0 6.0 6.0 6.2 6.3 6.3 6.4 6.6 6.6 6.7 6.7 6.7 6.8 6.9 7.0 7.1 7.1 7.1 7.2 7.2 7.2 7.2 7.1 7.0 7.0 7.0 7.0 7.0 6.8 6.8 6.8 6.7 6.6 6.6 6.5 6.4 6.4 6.3
7.3 7.1 6.7 6.3 6.2 6.1 6.0 6.1 6.2 6.3 6.4 6.4 6.6 6.6 6.8 6.6 6.7 6.9 6.9 7.0 7.2 7.2 7.2 7.2 7.2 7.2 7.2 7.2 7.1 7.1 7.1 7.0 7.0 6.9 6.8 6.7 6.7 6.6 6.5 6.4 6.4 6.4 6.3
7.4 7.4 7.0 6.5 6.3 6.2 6.0 6.1 6.4 6.4 6.5 6.5 6.6 6.8 6.7 6.5 6.8 6.9 7.0 7.1 7.2 7.1 7.1 7.2 7.3 7.3 7.2 7.2 7.2 7.1 7.1 7.0 7.0 6.9 6.7 6.6 6.6 6.6 6.4 6.4 6.3 6.2 6.2
7.5 7.5 7.2 6.8 6.5 6.2 6.2 6.1 6.4 6.5 6.5 6.6 6.6 6.8 6.7 6.7 6.9 7.0 7.0 7.1 7.1 7.2 7.1 7.2 7.2 7.3 7.4 7.4 7.3 7.2 7.2 7.1 6.8 6.8 6.8 6.7 6.6 6.4 6.3 6.2 6.3 6.2 6.1
7.3 7.2 7.0 6.9 6.5 6.2 6.0 6.3 6.4 6.5 6.6 6.7 6.6 6.8 6.8 7.0 7.0 7.0 7.1 7.2 7.2 7.1 7.2 7.1 7.2 7.2 7.2 7.3 7.4 7.4 7.2 7.1 6.9 6.8 6.8 6.6 6.6 6.5 6.4 6.3 6.2 6.1 6.1
7.0 6.9 6.7 6.4 6.3 6.2 6.1 6.3 6.6 6.7 6.7 6.8 6.8 6.8 6.8 6.9 7.1 7.1 7.1 7.2 7.2 7.2 7.2 7.1 7.1 7.1 7.1 7.3 7.4 7.4 7.2 7.1 7.0 6.9 6.7 6.6 6.5 6.4 6.4 6.2 6.1 6.0 6.0
6.3 6.4 6.4 6.3 6.3 6.0 6.0 6.3 6.4 6.8 6.8 6.8 6.9 6.8 6.8 6.9 6.8 7.1 7.1 7.1 7.1 7.1 7.1 7.1 7.1 7.1 7.0 7.1 7.2 7.3 7.2 7.1 6.9 6.8 6.6 6.6 6.5 6.4 6.3 6.3 6.1 6.0 5.9
6.4 6.3 5.9 6.2 6.2 6.2 6.1 6.2 6.4 6.5 6.7 6.8 6.8 6.7 6.7 6.8 7.2 7.0 7.0 7.0 7.0 7.0 7.0 7.0 7.0 7.1 7.1 6.9 6.8 6.9 7.0 6.9 6.8 6.8 6.7 6.4 6.5 6.4 6.1 6.0 6.0 5.9 5.8
6.2 6.2 5.6 5.8 6.2 6.1 6.2 6.3 6.6 6.6 6.7 6.9 6.8 6.8 6.9 7.0 7.0 7.1 7.0 7.0 7.0 7.0 7.1 7.0 7.0 6.9 6.9 6.9 6.7 6.5 6.4 6.5 6.5 6.5 6.5 6.5 6.4 6.0 6.0 5.9 5.9 5.8 5.6
6.0 6.1 5.7 5.5 6.1 6.1 6.0 6.4 6.6 6.8 6.8 6.9 6.8 6.7 6.8 7.0 7.0 7.1 7.0 7.0 7.0 7.0 7.0 6.9 6.9 6.8 6.8 6.7 6.6 6.5 6.2 6.2 6.2 6.2 6.2 6.2 6.1 6.3 6.0 5.9 5.9 5.6 5.5
5.7 6.2 5.9 5.6 6.1 6.2 5.9 6.3 6.5 6.6 6.8 6.8 6.9 6.8 6.9 6.9 6.9 6.9 6.8 6.9 6.8 6.8 6.8 6.8 6.7 6.7 6.6 6.6 6.4 6.3 6.1 5.9 6.0 5.8 5.9 5.9 5.9 5.8 5.8 5.7 5.4 5.2 5.1
5.8 6.2 6.1 5.8 6.1 6.3 6.2 6.2 6.4 6.5 6.8 6.7 6.6 6.8 6.8 6.8 6.8 6.8 6.8 6.8 6.8 6.8 6.8 6.7 6.7 6.7 6.5 6.5 6.3 6.1 5.9 5.7 5.8 5.7 5.7 5.8 5.9 5.7 5.6 5.4 5.3 5.3 5.2
5.6 6.1 5.3 6.1 6.2 6.2 6.2 6.1 6.5 6.4 6.6 6.6 6.7 6.8 6.7 6.6 6.6 6.7 6.7 6.7 6.7 6.6 6.6 6.5 6.5 6.5 6.5 6.4 6.2 6.2 6.0 6.2 5.7 5.5 5.6 5.6 5.5 5.6 5.5 5.3 5.1 5.1 5.1
5.8 6.3 5.9 5.7 6.2 6.2 5.9 5.9 6.1 6.3 6.7 6.8 6.7 6.6 6.5 6.5 6.5 6.5 6.6 6.6 6.5 6.4 6.5 6.5 6.4 6.3 6.4 6.3 6.0 6.1 5.8 5.7 5.7 6.0 6.0 5.5 5.3 5.1 4.9 4.9 4.9 4.9 4.8
6.1 5.6 6.4 5.9 6.5 6.1 6.1 5.8 6.3 6.1 6.2 6.4 6.4 6.3 6.4 6.4 6.5 6.6 6.5 6.5 6.4 6.4 6.5 6.3 6.1 5.9 6.1 6.3 6.0 5.9 5.6 5.3 5.1 5.1 5.4 5.5 5.3 4.9 4.7 4.7 4.7 4.8 5.0
6.4 6.2 6.2 6.3 6.4 5.4 6.2 5.7 6.1 6.1 6.1 6.3 6.2 6.2 6.3 6.4 6.3 6.3 6.4 6.4 6.4 6.3 6.2 6.2 5.9 5.9 6.0 5.9 5.7 5.7 5.5 5.3 5.1 5.0 4.9 4.6 4.9 5.1 5.2 5.1 4.9 4.8 4.7
6.5 6.2 6.0 6.4 6.4 5.9 5.4 5.4 5.9 6.0 6.3 6.2 6.1 6.2 6.3 6.1 6.2 6.3 6.2 6.2 6.2 6.2 6.1 5.9 6.0 6.1 5.9 5.7 5.4 5.2 5.3 5.4 5.2 5.2 5.0 5.1 5.0 4.9 4.7 4.7 4.6 4.6 4.4
Wind_Speed
15 22 25 22 20 18 17 16 15 14 13 12 12 15 16 15 16 14 15 14 14 13 13 13 12 11 12 13 12 12 11 10 8 6 4 5 6 8 8 8 13 10 9
19 25 25 23 21 18 17 15 13 13 14 16 17 16 14 13 13 13 13 13 13 13 13 12 12 11 11 9 9 9 9 8 6 5 3 0 1 8 10 6 9 8 8
19 24 23 23 20 17 18 20 19 18 17 15 16 15 14 14 14 13 13 13 13 13 13 13 13 12 12 11 10 8 7 6 7 8 8 5 4 10 11 5 3 4 5
19 22 23 23 20 20 22 20 17 15 15 15 15 14 14 14 14 14 14 13 13 13 13 12 13 13 13 12 11 9 8 6 6 8 10 5 8 12 10 7 5 1 4
17 20 22 23 21 23 21 19 16 15 15 15 14 14 14 14 14 13 13 13 13 12 12 12 12 13 12 12 11 10 9 9 8 8 8 11 13 12 12 11 11 8 9
17 24 23 23 22 23 21 20 16 16 15 15 15 15 14 14 14 13 13 13 13 12 12 12 12 12 12 12 11 11 12 12 13 3 7 13 16 13 12 11 12 12 13
18 22 21 23 24 23 21 18 17 17 16 16 15 14 14 14 14 13 13 13 12 12 12 12 12 12 13 12 11 12 14 20 15 18 19 18 14 13 12 14 13 14 15
19 19 20 24 23 21 22 18 17 17 16 16 15 14 14 14 14 14 12 12 12 12 12 12 12 12 13 12 11 11 13 18 17 20 18 17 17 16 17 16 16 17 17
17 17 19 20 21 23 19 18 18 18 17 16 15 15 14 14 14 14 12 12 12 12 11 11 12 12 12 10 10 12 18 21 18 17 16 15 14 16 16 16 16 17 16
13 14 14 19 18 18 16 17 17 18 17 15 15 15 14 14 13 13 12 11 12 11 10 10 10 10 9 8 8 11 13 13 21 18 17 13 13 14 13 15 16 15 15
10 13 14 14 17 18 17 18 18 17 17 14 12 15 16 15 15 14 11 10 11 10 9 7 6 7 6 9 6 8 11 19 19 17 13 13 13 14 14 15 16 16 16
11 13 12 13 13 17 15 17 15 14 17 14 11 12 5 15 13 13 10 9 9 7 7 4 2 3 6 3 3 6 13 20 18 15 14 18 16 17 17 16 17 16 16
8 9 7 10 14 14 12 13 14 14 14 16 11 10 15 12 12 10 8 6 5 6 5 3 1 7 7 7 10 10 13 16 15 15 14 17 14 15 14 14 14 14 10
9 9 7 9 7 10 12 10 12 8 9 9 7 11 8 5 7 8 8 5 5 5 5 5 5 4 6 10 11 11 13 13 16 14 14 13 14 13 10 10 10 10 11
9 7 7 9 7 7 5 7 7 6 9 10 7 5 10 7 3 8 7 9 6 6 5 3 4 5 6 6 9 10 11 10 14 14 14 14 13 12 12 11 11 11 12
9 10 8 8 7 8 3 5 6 6 11 9 5 5 9 9 4 7 7 7 6 5 6 6 4 3 3 6 6 6 8 9 9 14 14 13 12 12 12 12 12 12 11
7 7 6 8 9 6 7 6 7 10 9 8 7 6 9 7 3 5 6 5 6 5 5 5 5 5 4 3 4 5 7 7 8 9 12 11 11 11 11 11 11 11 11
10 12 6 4 8 8 6 6 8 8 10 10 9 8 8 6 4 5 5 4 6 6 4 4 2 2 2 3 1 2 4 4 4 8 6 8 8 8 10 8 8 9 9
13 9 10 6 5 7 7 7 9 9 8 10 11 10 9 8 4 5 7 5 5 4 4 2 3 2 2 2 2 1 1 2 4 5 6 9 5 6 6 5 5 5 6
11 9 9 8 4 6 5 5 4 4 6 10 9 12 10 9 6 8 6 5 4 2 2 1 3 2 2 1 3 1 1 2 3 3 4 8 10 6 3 4 4 2 3
9 10 9 11 13 7 5 4 4 3 3 2 5 15 10 11 8 8 6 5 3 3 3 2 1 1 2 2 2 2 3 3 3 3 5 5 8 10 7 5 3 1 2
11 12 4 6 4 5 5 4 3 4 2 2 4 7 8 10 9 7 6 4 4 3 3 2 2 1 1 1 1 0 2 3 2 4 2 3 2 7 7 7 6 5 3
12 12 13 8 2 2 6 4 3 4 3 2 2 2 4 9 9 6 7 6 4 2 3 2 2 1 1 1 2 3 2 1 2 1 2 2 2 2 4 7 9 7 7
10 11 12 7 5 3 5 6 3 3 3 3 3 3 4 8 9 6 6 4 5 3 2 2 3 1 1 1 1 1 2 2 1 3 2 2 1 2 4 3 3 6 9
11 10 11 12 6 1 2 5 3 4 4 4 3 5 4 3 8 8 6 5 3 2 2 3 2 1 1 0 0 1 1 1 2 2 3 3 2 3 3 3 3 3 3
12 13 15 15 11 7 5 3 2 3 1 5 3 3 3 3 3 7 6 4 4 3 2 1 1 2 2 1 1 1 2 1 1 2 3 3 2 3 1 1 1 4 2
Wind_Direction
137 144 147 146 143 140 138 135 132 129 125 122 119 98 88 76 69 64 63 61 59 55 53 50 49 46 39 39 34 55 55 51 42 37 47 55 61 33 47 27 25 62 51
133 142 147 145 147 146 144 136 124 134 114 101 92 83 84 85 79 73 68 64 63 61 58 55 51 49 51 48 44 37 35 30 16 354 351 338 102 68 43 49 42 50 43
134 143 145 144 147 139 120 116 107 102 99 96 94 94 91 86 80 75 72 68 66 64 63 61 57 52 50 50 44 40 29 7 347 327 316 271 165 70 54 52 47 38 42
134 145 141 143 141 128 124 120 116 111 104 102 100 97 94 90 87 84 79 73 69 64 61 58 58 56 51 48 42 35 22 359 336 316 318 53 67 48 41 15 357 357 23
131 144 140 140 134 129 124 118 119 115 110 105 100 98 97 94 89 87 83 79 74 68 64 63 60 55 50 47 43 33 24 8 340 321 26 39 27 46 49 42 45 67 24
141 128 141 138 134 127 125 120 123 118 112 109 106 103 99 94 93 88 83 78 75 69 68 63 59 58 53 50 40 24 8 352 318 249 64 67 56 57 56 59 63 63 59
122 132 138 133 129 126 125 127 127 121 117 114 111 107 103 97 94 89 86 80 74 71 69 66 59 57 57 51 39 22 6 1 29 65 53 44 57 59 62 62 59 58 55
126 136 134 130 128 129 122 132 128 123 119 116 112 108 106 100 95 89 85 83 79 75 73 68 62 59 58 51 38 22 5 13 70 65 51 31 53 54 55 60 63 62 55
131 129 130 126 126 120 128 131 130 125 122 117 115 109 103 101 94 90 85 81 79 77 75 71 68 65 60 47 28 13 9 17 70 61 48 21 38 50 53 62 64 61 56
127 131 132 129 126 118 124 126 123 122 121 120 120 121 118 110 102 94 85 83 80 78 74 73 78 77 72 50 32 19 359 6 66 55 33 5 45 51 51 58 60 60 57
139 135 138 140 134 130 119 116 113 119 123 128 140 147 152 128 106 91 91 88 85 81 79 79 98 105 102 85 37 14 31 68 65 56 18 33 69 64 61 60 60 60 57
143 143 148 144 136 133 131 135 137 142 143 148 167 176 175 92 104 110 109 111 105 103 104 119 119 167 195 231 13 28 65 87 79 63 26 42 62 61 54 51 52 53 51
144 136 156 131 124 126 147 146 147 177 178 166 178 125 116 134 139 141 143 151 153 168 204 200 84 40 48 73 81 68 60 83 93 75 40 42 48 51 47 44 39 34 32
145 132 112 103 115 133 139 144 163 144 146 123 142 128 129 118 131 113 117 122 67 107 75 72 103 127 50 65 82 85 71 63 106 89 64 57 55 54 49 41 34 37 41
143 118 100 104 103 109 135 134 132 124 123 125 129 140 117 123 117 117 111 92 85 61 80 46 78 99 90 76 76 81 81 81 96 102 86 70 68 65 60 55 51 48 47
169 122 120 118 118 132 111 114 120 149 121 121 122 95 99 105 117 114 102 99 80 77 64 60 59 66 84 96 77 83 105 92 97 129 113 97 81 68 61 57 52 48 45
162 128 133 130 136 141 141 130 109 119 124 118 120 113 96 97 126 102 108 97 92 57 68 58 46 53 54 54 94 84 71 92 101 100 133 123 106 85 65 54 49 45 41
159 155 159 110 139 137 134 133 128 140 136 129 133 118 107 98 112 96 93 85 91 79 65 73 38 65 68 40 32 139 135 112 107 113 124 118 125 117 87 67 55 45 40
162 169 134 181 180 140 145 150 137 150 139 153 145 139 139 143 148 111 106 112 106 89 72 49 45 59 54 25 297 112 126 144 158 139 157 127 114 93 126 119 96 69 45
151 173 155 157 168 190 152 126 121 135 149 156 160 147 149 157 156 128 125 133 131 119 119 76 93 51 91 36 327 360 214 213 178 180 193 158 149 148 166 149 184 172 84
140 151 168 184 182 169 145 141 137 164 139 155 159 146 175 158 161 155 151 152 165 114 107 76 106 87 15 26 14 309 264 217 204 211 193 183 175 174 188 187 236 104 188
155 141 135 229 194 156 139 151 139 150 154 170 151 152 168 154 163 169 165 172 150 128 134 101 79 22 154 86 112 352 326 335 281 224 184 190 212 189 182 205 216 217 210
169 160 142 247 224 146 147 131 123 103 94 107 138 154 178 166 177 186 176 157 155 121 150 138 136 136 131 272 128 146 6 267 321 8 202 205 217 185 218 232 205 215 214
184 158 152 140 252 289 128 109 121 128 143 185 161 176 184 179 179 193 176 164 160 169 153 176 156 161 120 232 355 148 123 141 84 338 336 232 190 225 234 247 232 240 223
173 165 160 146 169 301 23 99 181 192 186 177 154 171 159 185 183 191 194 186 181 174 199 147 144 180 233 120 296 175 218 206 201 156 277 319 325 272 259 249 262 280 273
173 176 173 167 166 163 101 332 138 331 24 115 112 148 171 167 208 190 197 185 192 172 161 179 198 207 230 230 281 318 181 179 215 202 257 271 233 285 331 252 275 293 261